Home   Weather   Crawley   Past weeks

Flag for United Kingdom Past Weather in Crawley, England, United Kingdom — Yesterday and Last 2 Weeks

Now
61 °F

Passing clouds.


Feels Like: 61 °F
Forecast: 53 / 72 °F
Wind: 5 mph from Southwest

Location: London / Gatwick Airport

Current Time: Aug 31, 2016 at 10:47:57 PM

Latest Report: Aug 31, 2016 at 10:20 PM


Visibility: N/A

Pressure: 30.18 "Hg

Humidity: 94%

Dew Point: 59 °F

Location of CrawleyLocation

Past Weather in Crawley — Graph

°F

Crawley Temperature Yesterday

Maximum temperature yesterday: 75 °F (at 12:50 PM)
Minimum temperature yesterday: 48 °F (at 5:50 AM)
Average temperature yesterday: 62 °F

High & Low Weather Summary for the Past Weeks

 TemperatureHumidityPressure
High88 °F (Aug 24, 2:50 PM)100% (Aug 17, 2:20 AM)30.30 "Hg (Aug 17, 2:20 AM)
Low48 °F (Aug 30, 5:50 AM)39% (Aug 26, 5:20 PM)29.68 "Hg (Aug 19, 4:50 PM)
Average66 °F79%30.01 "Hg
* Reported Aug 16 9:20 PM — Aug 31 9:20 PM, Crawley, Weather by CustomWeather, © 2016

Note: Actual official high and low records may vary slightly from our data, if they occured in-between our weather recording intervals... More about our weather records

Advertising

Crawley Weather History for the Previous 24 Hours

Scroll right to see more
 ConditionsComfort  
Time TempWeatherWind HumidityBarometerVisibility
9:20 PM
Wed, Aug 31
64 °FPassing clouds.6 mph88%30.18 "HgN/A
8:50 PM64 °FPassing clouds.8 mph88%30.18 "HgN/A
8:20 PM64 °FPassing clouds.6 mph88%30.15 "HgN/A
7:50 PM66 °FScattered clouds.6 mph78%30.15 "HgN/A
7:20 PM68 °FScattered clouds.8 mph73%30.12 "HgN/A
6:50 PM70 °FScattered clouds.9 mph73%30.12 "HgN/A
6:20 PM70 °FScattered clouds.10 mph73%30.12 "HgN/A
5:50 PM70 °FScattered clouds.9 mph73%30.12 "HgN/A
5:20 PM70 °FScattered clouds.7 mph73%30.12 "HgN/A
4:50 PM70 °FScattered clouds.8 mph69%30.12 "HgN/A
4:20 PM72 °FPartly sunny.8 mph65%30.12 "HgN/A
3:50 PM72 °FBroken clouds.10 mph65%30.15 "HgN/A
3:20 PM72 °FBroken clouds.12 mph65%30.12 "HgN/A
2:50 PM73 °FScattered clouds.10 mph57%30.12 "HgN/A
2:20 PM72 °FScattered clouds.10 mph61%30.12 "HgN/A
1:50 PM72 °FScattered clouds.12 mph57%30.12 "HgN/A
1:20 PM72 °FScattered clouds.12 mph61%30.12 "HgN/A
12:50 PM72 °FScattered clouds.12 mph61%30.12 "HgN/A
12:20 PM70 °FScattered clouds.9 mph60%30.15 "HgN/A
11:50 AM70 °FScattered clouds.12 mph60%30.15 "HgN/A
11:20 AM68 °FScattered clouds.12 mph64%30.15 "HgN/A
10:50 AM68 °FScattered clouds.12 mph64%30.15 "HgN/A
10:20 AM66 °FPassing clouds.7 mph73%30.12 "HgN/A
9:50 AM66 °FPassing clouds.8 mph73%30.12 "HgN/A
9:20 AM64 °FPassing clouds.8 mph73%30.12 "HgN/A
8:50 AM63 °FSunny.5 mph83%30.12 "Hg10 mi
8:20 AM57 °FSunny.2 mph88%30.12 "Hg10 mi
7:50 AM54 °FSunny.No wind100%30.12 "Hg10 mi
7:20 AM50 °FSunny.2 mph100%30.12 "Hg10 mi
6:50 AM48 °FFog.No wind94%30.12 "HgN/A
6:20 AM48 °FFog.No wind100%30.12 "Hg6 mi
5:50 AM48 °FFog.No wind100%30.12 "Hg4 mi
5:20 AM48 °FFog.3 mph100%30.12 "Hg4 mi
4:50 AM48 °FFog.2 mph100%30.12 "Hg4 mi
4:20 AM48 °FClear.No wind100%30.12 "Hg6 mi
3:50 AM48 °FClear.2 mph100%30.12 "Hg10 mi
3:20 AM50 °FClear.2 mph94%30.15 "Hg10 mi
2:50 AM50 °FClear.2 mph100%30.15 "Hg10 mi
2:20 AM50 °FClear.No wind100%30.15 "Hg10 mi
1:50 AM52 °FClear.2 mph94%30.15 "Hg10 mi
1:20 AM52 °FClear.2 mph100%30.15 "Hg10 mi
12:50 AM52 °FClear.2 mph100%30.18 "Hg10 mi
12:20 AM52 °FClear.2 mph100%30.18 "Hg10 mi
11:50 PM
Tue, Aug 30
54 °FClear.No wind100%30.18 "Hg10 mi
11:20 PM54 °FClear.No wind94%30.18 "Hg10 mi
10:50 PM55 °FClear.No wind94%30.18 "Hg10 mi
10:20 PM55 °FClear.2 mph94%30.18 "Hg10 mi
Weather by CustomWeather, © 2016

See weather overviewHow to use our weather pages